#timestamp,LO_Frequency,Hit,StdDev 
1600977615.3,286047001.0,N
1600977635.1,286046998.1,N
1600977636.0,286046998.1,N
1600977655.8,286046999.5,N
1600977675.7,286046999.2,N
1600977695.5,286046999.3,N
1600977715.3,286046999.3,N
1600977735.2,286046998.4,N
1600977755.0,286046998.4,N
1600977755.9,286046998.4,N
1600977775.8,286046999.0,N
1600977795.6,286046996.5,N
1600977815.4,286046999.5,N
1600977835.3,286047000.7,N
1600977855.1,286046998.6,N
1600977875.9,286047001.2,N
1600977895.7,286046999.0,N
1600977915.5,286047001.2,N
1600977935.4,286046998.5,N
1600977955.2,286046998.3,N
1600977975.0,286046998.5,N
1600977975.9,286046998.5,N
1600977995.8,286046998.4,N
1600978015.6,286046999.6,N
1600978035.5,286046999.0,N
1600978055.3,286047000.5,N
1600978075.1,286046999.3,N
1600978095.9,286046999.2,N
1600978115.7,286046999.9,N
1600978135.6,286047005.5,Y
1600978155.4,286047008.6,P
1600978175.2,286047012.4,N
1600978195.1,286047012.6,N
1600978196.0,286047012.6,N
1600978215.8,286047018.7,Y
1600978235.6,286047004.8,P
1600978255.5,286047003.9,N
1600978275.3,286047002.1,N
1600978295.2,286047000.0,N
1600978315.0,286046999.2,N
1600978315.9,286046999.2,N
1600978335.8,286046997.6,N
1600978355.6,286046995.5,N
1600978375.4,286046996.1,N
1600978395.3,286046993.6,N
1600978415.1,286046994.4,N
1600978435.8,286046994.3,N
1600978455.7,286046993.6,N
1600978475.5,286046991.8,N
1600978495.4,286046994.6,N
1600978515.2,286046994.0,N
1600978535.0,286046992.2,N
1600978535.9,286046992.2,N
1600978555.8,286046992.6,N
1600978575.6,286046992.8,N
1600978595.5,286046993.1,N
1600978615.3,286046990.1,N
1600978635.1,286046990.2,N
1600978655.9,286046993.2,N
1600978675.7,286046990.7,N
1600978695.5,286046990.5,N
1600978715.4,286046991.3,N
1600978735.2,286046991.4,N
1600978755.1,286046994.7,N
1600978756.0,286046994.7,N
1600978775.8,286046996.3,N
1600978795.6,286046999.6,N
1600978815.5,286046997.4,N
1600978835.3,286046994.9,N
1600978855.2,286046994.9,N
1600978875.0,286046995.7,N
1600978875.9,286046995.7,N
1600978895.7,286046994.5,N
1600978915.6,286046994.3,N
1600978935.4,286046993.4,Y
1600978955.3,286047002.6,P
1600978975.1,286047002.2,N
1600978995.8,286047000.7,N
1600979015.7,286047001.0,N
1600979035.5,286046998.2,N
1600979055.4,286046998.5,N
1600979075.2,286046999.0,N
1600979095.0,286046996.5,N
1600979095.9,286046996.5,N
1600979115.8,286046996.9,N
1600979135.6,286046997.0,N
1600979155.4,286046996.7,N
1600979175.3,286046997.3,N
1600979195.1,286046994.9,N
1600979215.9,286046999.6,N
1600979235.7,286046996.7,N
1600979255.5,286046999.0,N
1600979275.4,286046998.9,N
1600979295.2,286046999.3,N
1600979315.1,286046999.3,N
1600979316.0,286046999.3,N
1600979335.8,286046999.1,N
1600979355.6,286046999.3,N
1600979375.5,286046999.3,N
1600979395.3,286046998.8,N
1600979415.1,286046999.1,N
1600979435.9,286046997.7,N
1600979455.7,286046995.0,N
1600979475.6,286046995.4,N
1600979495.4,286046997.8,N
1600979515.2,286046998.0,N
1600979535.1,286046997.9,N
1600979536.0,286046997.9,N
1600979555.8,286046995.9,N
1600979575.7,286046995.9,Y
1600979595.5,286046997.7,P
1600979615.3,286046997.2,P
1600979635.2,286046997.7,P
1600979655.9,286046997.6,Y
1600979675.7,286046998.3,P
1600979695.6,286047000.8,N
1600979715.4,286047000.0,N
1600979735.3,286047000.0,N
1600979755.1,286047000.9,N
1600979756.0,286047000.9,N
1600979775.8,286047001.2,N
1600979795.7,286046999.3,N
1600979815.5,286047000.3,N
1600979835.3,286047000.7,N
1600979855.2,286047001.2,N
1600979875.0,286046996.6,Y
1600979875.9,286046996.6,P
1600979895.8,286047002.1,N
1600979915.6,286046999.8,N
1600979935.4,286047000.3,N
1600979955.3,286047000.4,N
1600979975.1,286046999.9,N
1600979995.8,286047000.0,N
1600980015.7,286047000.0,N
1600980035.5,286046998.1,N
1600980055.4,286046998.9,N
1600980075.2,286046996.5,N
1600980095.0,286046998.9,N
1600980095.9,286046998.9,N
1600980115.8,286046998.4,N
1600980135.6,286046998.3,N
1600980155.4,286047001.1,N
1600980175.3,286047000.8,N
1600980195.1,286047001.0,N
1600980215.9,286047001.0,N
1600980235.7,286047001.2,N
1600980255.5,286046998.2,N
1600980275.4,286046998.8,N
1600980295.2,286046996.6,N
1600980315.0,286046996.7,N
1600980315.9,286046996.7,N
1600980335.8,286046997.0,N
1600980355.6,286046997.0,N
1600980375.5,286046997.0,N
1600980395.3,286046996.8,N
1600980415.1,286046997.4,N
1600980435.9,286046998.0,N
1600980455.7,286046998.0,N
1600980475.6,286046995.0,Y
1600980495.4,286046997.2,P
1600980515.2,286046997.0,P
1600980535.1,286046998.5,N
1600980536.0,286046998.5,N
1600980555.8,286046998.2,N
1600980575.7,286046999.3,N
1600980595.5,286046998.9,N
1600980615.3,286046999.3,N
1600980635.2,286046999.0,N
1600980655.0,286046996.5,Y
1600980655.9,286046996.5,P
1600980675.7,286046998.3,N
1600980695.6,286047000.3,N
1600980715.4,286047000.0,N
1600980735.3,286047001.0,N
1600980755.1,286047000.3,N
1600980756.0,286047000.3,N
1600980775.8,286047000.6,N
1600980795.7,286047000.9,N
1600980815.5,286047000.0,N
1600980835.3,286047000.1,N
1600980855.2,286047001.6,N
1600980875.0,286046999.8,N
1600980875.9,286046999.8,N
1600980895.8,286047002.8,N
1600980915.6,286047000.3,N
1600980935.4,286047000.1,N
1600980955.3,286047000.5,N
1600980975.1,286047002.0,N
1600980995.8,286047002.2,N
1600981015.7,286047001.9,N
1600981035.5,286047001.4,N
1600981055.4,286047001.8,N
1600981075.2,286047004.1,Y
1600981095.0,286047003.9,P
1600981095.9,286047003.9,N
1600981115.8,286047003.7,N
1600981135.6,286047003.9,N
1600981155.4,286047003.8,N
1600981175.3,286047004.1,Y
1600981195.1,286047000.5,P
